,,Stat5,,Stat1,,Stat2,,Stat3,,Stat4,,Wind1,,Wind1,
time,status,PA1M_AVG,status,PR1M_SUM,status,RH1M_AVG,status,SR1M_AVG,status,TA1M_AVG,status,W1dAve1m,status,W1sAve1m,
2000-06-05, 00:00:01,VALID,915.806,VALID,0,VALID,91.3368,VALID,0.0509425,VALID,21.0912,VALID,199,VALID,0.716797,
2000-06-05, 00:01:00,VALID,915.777,VALID,0,VALID,91.2542,VALID,0.101885,VALID,21.081,VALID,202,VALID,0.887458,
2000-06-05, 00:02:00,VALID,915.746,VALID,0,VALID,91.305,VALID,0.0679233,VALID,21.0848,VALID,202,VALID,0.747889,
2000-06-05, 00:03:00,VALID,915.719,VALID,0,VALID,91.1156,VALID,0.0509425,VALID,21.0912,VALID,206,VALID,0.905649,
2000-06-05, 00:04:00,VALID,915.693,VALID,0,VALID,91.0609,VALID,0.0849042,VALID,21.1006,VALID,195,VALID,0.634924,
2000-06-05, 00:05:00,VALID,915.685,VALID,0,VALID,91.1054,VALID,0.0849042,VALID,21.1071,VALID,191,VALID,0.761719,
2000-06-05, 00:06:00,VALID,915.665,VALID,0,VALID,91.1944,VALID,0.0679233,VALID,21.0979,VALID,195,VALID,0.893864,
2000-06-05, 00:07:00,VALID,915.643,VALID,0,VALID,91.2872,VALID,0.0849042,VALID,21.0651,VALID,195,VALID,0.816612,
2000-06-05, 00:08:00,VALID,915.621,VALID,0,VALID,91.3495,VALID,0.101885,VALID,21.0395,VALID,193,VALID,1.08964,
2000-06-05, 00:09:00,VALID,915.595,VALID,0,VALID,91.4004,VALID,0.0169808,VALID,21.0344,VALID,191,VALID,0.965039,
2000-06-05, 00:10:00,VALID,915.574,VALID,0,VALID,91.5288,VALID,-0.0509425,VALID,21.0252,VALID,190,VALID,0.876028,
2000-06-05, 00:11:00,VALID,915.568,VALID,0,VALID,91.6903,VALID,-0.0339617,VALID,21.012,VALID,193,VALID,0.895559,
2000-06-05, 00:12:00,VALID,915.579,VALID,0,VALID,91.9624,VALID,-0.0509425,VALID,20.9767,VALID,198,VALID,0.610491,
2000-06-05, 00:13:00,VALID,915.579,VALID,0,VALID,91.9574,VALID,-0.0849042,VALID,20.9676,VALID,202,VALID,0.662109,
2000-06-05, 00:14:00,VALID,915.58,VALID,0,VALID,92.0247,VALID,-0.0679233,VALID,20.9509,VALID,198,VALID,0.859592,
2000-06-05, 00:15:00,VALID,915.597,VALID,0,VALID,92.1786,VALID,-0.0679233,VALID,20.9541,VALID,196,VALID,0.794969,
2000-06-05, 00:16:00,VALID,915.596,VALID,0,VALID,92.4075,VALID,-0.0679233,VALID,20.938,VALID,197,VALID,1.06187,
2000-06-05, 00:17:00,VALID,915.591,VALID,0,VALID,92.6249,VALID,-0.0169808,VALID,20.9248,VALID,198,VALID,1.16488,
2000-06-05, 00:18:00,VALID,915.576,VALID,0,VALID,92.7496,VALID,-0.0339617,VALID,20.9086,VALID,191,VALID,0.760485,
2000-06-05, 00:19:00,VALID,915.561,VALID,0,VALID,92.8449,VALID,-0.0509425,VALID,20.8965,VALID,205,VALID,0.451601,
2000-06-05, 00:20:00,VALID,915.531,VALID,0,VALID,92.7101,VALID,-0.0509425,VALID,20.8865,VALID,217,VALID,1.0035,
2000-06-05, 00:21:00,VALID,915.513,VALID,0,VALID,92.6593,VALID,-0.0849042,VALID,20.8962,VALID,218,VALID,0.820107,
2000-06-05, 00:22:00,VALID,915.503,VALID,0,VALID,92.7216,VALID,-0.0849042,VALID,20.8957,VALID,222,VALID,0.485677,
2000-06-05, 00:23:00,VALID,915.487,VALID,0,VALID,93.1056,VALID,-0.0339617,VALID,20.9027,VALID,224,VALID,0.173353,
2000-06-05, 00:24:00,VALID,915.492,VALID,0,VALID,93.5659,VALID,-0.0679233,VALID,20.8962,VALID,195,VALID,0.476563,
2000-06-05, 00:25:00,VALID,915.493,VALID,0,VALID,93.5456,VALID,-0.0339617,VALID,20.8477,VALID,160,VALID,0.513158,
2000-06-05, 00:26:00,VALID,915.52,VALID,0,VALID,93.1171,VALID,-0.0509425,VALID,20.7607,VALID,132,VALID,0.53484,
2000-06-05, 00:27:00,VALID,915.531,VALID,0,VALID,93.2569,VALID,-0.0509425,VALID,20.6924,VALID,125,VALID,0.640625,
2000-06-05, 00:28:00,VALID,915.54,VALID,0,VALID,93.0369,VALID,0,VALID,20.6014,VALID,118,VALID,0.705659,
2000-06-05, 00:29:00,VALID,915.567,VALID,0,VALID,93.44,VALID,-0.0339617,VALID,20.5052,VALID,122,VALID,0.621484,
2000-06-05, 00:30:00,VALID,915.581,VALID,0,VALID,93.9474,VALID,-0.0509425,VALID,20.4274,VALID,130,VALID,0.474301,
2000-06-05, 00:31:00,VALID,915.589,VALID,0,VALID,94.2793,VALID,-0.0509425,VALID,20.3854,VALID,143,VALID,0.454861,
2000-06-05, 00:32:00,VALID,915.617,VALID,0,VALID,94.3531,VALID,-0.0679233,VALID,20.3538,VALID,140,VALID,0.494721,
2000-06-05, 00:33:00,VALID,915.646,VALID,0,VALID,94.5222,VALID,-0.0509425,VALID,20.3178,VALID,148,VALID,0.637035,
2000-06-05, 00:34:00,VALID,915.671,VALID,0,VALID,95.0804,VALID,-0.0509425,VALID,20.3156,VALID,157,VALID,0.795037,
2000-06-05, 00:35:00,VALID,915.683,VALID,0,VALID,95.5178,VALID,-0.0509425,VALID,20.2887,VALID,171,VALID,0.884766,
2000-06-05, 00:36:00,VALID,915.688,VALID,0,VALID,95.5598,VALID,-0.0679233,VALID,20.2922,VALID,174,VALID,0.840946,
2000-06-05, 00:37:00,VALID,915.699,VALID,0,VALID,95.4759,VALID,-0.0169808,VALID,20.2925,VALID,178,VALID,0.682566,
2000-06-05, 00:38:00,VALID,915.688,VALID,0,VALID,95.4034,VALID,-0.0339617,VALID,20.286,VALID,188,VALID,0.735403,
2000-06-05, 00:39:00,VALID,915.699,VALID,0,VALID,95.3538,VALID,-0.0509425,VALID,20.2925,VALID,196,VALID,0.5625,
2000-06-05, 00:40:00,VALID,915.696,VALID,0,VALID,95.3335,VALID,-0.0339617,VALID,20.2994,VALID,192,VALID,0.568257,
2000-06-05, 00:41:00,VALID,915.699,VALID,0,VALID,95.3246,VALID,-0.0849042,VALID,20.2887,VALID,181,VALID,0.443051,
2000-06-05, 00:42:00,VALID,915.692,VALID,0,VALID,95.1707,VALID,-0.0679233,VALID,20.2825,VALID,154,VALID,0.134713,
2000-06-05, 00:43:00,VALID,915.666,VALID,0,VALID,94.9037,VALID,-0.0509425,VALID,20.2733,VALID,151,VALID,0.00130208,
2000-06-05, 00:44:00,VALID,915.663,VALID,0,VALID,95.055,VALID,-0.0849042,VALID,20.2502,VALID,159,VALID,0.00108507,
2000-06-05, 00:45:00,VALID,915.663,VALID,0,VALID,95.4924,VALID,-0.0679233,VALID,20.2666,VALID,192,VALID,0.0186738,
2000-06-05, 00:46:00,VALID,915.652,VALID,0,VALID,95.6221,VALID,-0.0679233,VALID,20.2795,VALID,192,VALID,0,
2000-06-05, 00:47:00,VALID,915.655,VALID,0,VALID,95.4695,VALID,-0.101885,VALID,20.3027,VALID,192,VALID,0,
2000-06-05, 00:48:00,VALID,915.642,VALID,0,VALID,95.4492,VALID,-0.101885,VALID,20.3024,VALID,192,VALID,0,
2000-06-05, 00:49:00,VALID,915.644,VALID,0,VALID,95.5611,VALID,-0.101885,VALID,20.3352,VALID,192,VALID,0,
2000-06-05, 00:50:00,VALID,915.641,VALID,0,VALID,95.5636,VALID,-0.0849042,VALID,20.3613,VALID,192,VALID,0,
2000-06-05, 00:51:00,VALID,915.636,VALID,0,VALID,95.4365,VALID,-0.0849042,VALID,20.3765,VALID,192,VALID,0,
2000-06-05, 00:52:00,VALID,915.624,VALID,0,VALID,94.9469,VALID,-0.101885,VALID,20.3899,VALID,192,VALID,0,
2000-06-05, 00:53:00,VALID,915.618,VALID,0,VALID,94.6888,VALID,-0.101885,VALID,20.3902,VALID,192,VALID,0,
2000-06-05, 00:54:00,VALID,915.599,VALID,0,VALID,94.5641,VALID,-0.0339617,VALID,20.3859,VALID,192,VALID,0,
2000-06-05, 00:55:00,VALID,915.579,VALID,0,VALID,94.4611,VALID,0.0169808,VALID,20.3623,VALID,192,VALID,0,
2000-06-05, 00:56:00,VALID,915.562,VALID,0,VALID,94.6125,VALID,0.0169808,VALID,20.3531,VALID,192,VALID,0,
2000-06-05, 00:57:00,VALID,915.546,VALID,0,VALID,94.7765,VALID,0,VALID,20.3111,VALID,195,VALID,0.0382401,
2000-06-05, 00:58:00,VALID,915.545,VALID,0,VALID,94.9418,VALID,0.0339617,VALID,20.2688,VALID,211,VALID,0.230997,
2000-06-05, 00:59:00,VALID,915.547,VALID,0,VALID,95.1618,VALID,0,VALID,20.2298,VALID,211,VALID,0,
2000-06-05, 01:00:00,VALID,915.548,VALID,0,VALID,95.2648,VALID,0.0169808,VALID,20.2045,VALID,205,VALID,0.00102796,
2000-06-05, 01:01:00,VALID,915.557,VALID,0,VALID,95.5395,VALID,0.0169808,VALID,20.1654,VALID,194,VALID,0,
2000-06-05, 01:02:00,VALID,915.55,VALID,0,VALID,96.0163,VALID,0.0339617,VALID,20.1528,VALID,196,VALID,0,
2000-06-05, 01:03:00,VALID,915.537,VALID,0,VALID,96.1091,VALID,0,VALID,20.1006,VALID,198,VALID,0.436022,
2000-06-05, 01:04:00,VALID,915.524,VALID,0,VALID,96.3507,VALID,0.0169808,VALID,20.0976,VALID,192,VALID,0.675092,
2000-06-05, 01:05:00,VALID,915.521,VALID,0,VALID,96.3151,VALID,0.0339617,VALID,20.1172,VALID,190,VALID,0.591406,
2000-06-05, 01:06:00,VALID,915.528,VALID,0,VALID,96.1104,VALID,0.0169808,VALID,20.1364,VALID,190,VALID,0.543069,
2000-06-05, 01:07:00,VALID,915.544,VALID,0,VALID,95.879,VALID,0,VALID,20.1915,VALID,189,VALID,0.555304,
2000-06-05, 01:08:00,VALID,915.564,VALID,0,VALID,95.6832,VALID,0,VALID,20.2236,VALID,189,VALID,0.586349,
2000-06-05, 01:09:00,VALID,915.573,VALID,0,VALID,95.4288,VALID,0.101885,VALID,20.2201,VALID,193,VALID,0.482227,
2000-06-05, 01:10:00,VALID,915.589,VALID,0,VALID,95.3042,VALID,0,VALID,20.201,VALID,209,VALID,0.416735,
2000-06-05, 01:11:00,VALID,915.581,VALID,0,VALID,95.3157,VALID,0.0339617,VALID,20.1846,VALID,215,VALID,0.544202,
2000-06-05, 01:12:00,VALID,915.576,VALID,0,VALID,95.3678,VALID,0.0679233,VALID,20.1846,VALID,213,VALID,0.888091,
2000-06-05, 01:13:00,VALID,915.56,VALID,0,VALID,95.3576,VALID,0.0339617,VALID,20.2074,VALID,220,VALID,1,
2000-06-05, 01:14:00,VALID,915.539,VALID,0,VALID,95.2648,VALID,0.0679233,VALID,20.2432,VALID,215,VALID,0.99349,
2000-06-05, 01:15:00,VALID,915.488,VALID,0,VALID,95.1122,VALID,0.0339617,VALID,20.2882,VALID,217,VALID,0.893293,
2000-06-05, 01:16:00,VALID,915.455,VALID,0,VALID,95.083,VALID,0.0849042,VALID,20.3041,VALID,215,VALID,0.936233,
2000-06-05, 01:17:00,VALID,915.423,VALID,0,VALID,95.144,VALID,0.0339617,VALID,20.317,VALID,206,VALID,0.710732,
2000-06-05, 01:18:00,VALID,915.397,VALID,0,VALID,95.1542,VALID,0.0169808,VALID,20.3237,VALID,214,VALID,0.694901,
2000-06-05, 01:19:00,VALID,915.376,VALID,0,VALID,95.0715,VALID,0.0509425,VALID,20.3302,VALID,185,VALID,0.269055,
2000-06-05, 01:20:00,VALID,915.357,VALID,0,VALID,95.0295,VALID,0.0169808,VALID,20.3302,VALID,188,VALID,0.537007,
2000-06-05, 01:21:00,VALID,915.332,VALID,0,VALID,94.7523,VALID,0.0509425,VALID,20.3078,VALID,178,VALID,0.379729,
2000-06-05, 01:22:00,VALID,915.309,VALID,0,VALID,94.7981,VALID,0.0169808,VALID,20.2952,VALID,184,VALID,0.497396,
2000-06-05, 01:23:00,VALID,915.291,VALID,0,VALID,95.0791,VALID,0.0339617,VALID,20.2624,VALID,201,VALID,0.705236,
2000-06-05, 01:24:00,VALID,915.275,VALID,0,VALID,95.1504,VALID,0,VALID,20.2214,VALID,201,VALID,0.429018,
2000-06-05, 01:25:00,VALID,915.257,VALID,0,VALID,95.2623,VALID,-0.0509425,VALID,20.2062,VALID,208,VALID,0.664063,
2000-06-05, 01:26:00,VALID,915.236,VALID,0,VALID,95.4479,VALID,-0.0849042,VALID,20.196,VALID,205,VALID,0.618454,
2000-06-05, 01:27:00,VALID,915.221,VALID,0,VALID,95.4212,VALID,-0.0679233,VALID,20.1931,VALID,208,VALID,0.835321,
2000-06-05, 01:28:00,VALID,915.207,VALID,0,VALID,95.2648,VALID,-0.0679233,VALID,20.1928,VALID,201,VALID,0.799198,
2000-06-05, 01:29:00,VALID,915.191,VALID,0,VALID,95.1389,VALID,-0.0339617,VALID,20.1995,VALID,203,VALID,1.02051,
2000-06-05, 01:30:00,VALID,915.182,VALID,0,VALID,94.8681,VALID,-0.101885,VALID,20.2157,VALID,211,VALID,0.892887,
2000-06-05, 01:31:00,VALID,915.173,VALID,0,VALID,94.657,VALID,-0.0339617,VALID,20.2346,VALID,190,VALID,0.831163,
2000-06-05, 01:32:00,VALID,915.15,VALID,0,VALID,94.5451,VALID,-0.101885,VALID,20.2609,VALID,178,VALID,1.03695,
2000-06-05, 01:33:00,VALID,915.153,VALID,0,VALID,94.615,VALID,-0.0679233,VALID,20.2577,VALID,181,VALID,0.943834,
2000-06-05, 01:34:00,VALID,915.151,VALID,0,VALID,94.6888,VALID,-0.0679233,VALID,20.248,VALID,185,VALID,0.919118,
2000-06-05, 01:35:00,VALID,915.149,VALID,0,VALID,94.7307,VALID,-0.0679233,VALID,20.2316,VALID,194,VALID,0.858398,
2000-06-05, 01:36:00,VALID,915.139,VALID,0,VALID,94.8248,VALID,-0.0849042,VALID,20.2221,VALID,203,VALID,1.1238,
2000-06-05, 01:37:00,VALID,915.126,VALID,0,VALID,94.8019,VALID,-0.0849042,VALID,20.2157,VALID,210,VALID,0.846012,
2000-06-05, 01:38:00,VALID,915.107,VALID,0,VALID,94.8414,VALID,-0.101885,VALID,20.209,VALID,219,VALID,0.958265,
2000-06-05, 01:39:00,VALID,915.088,VALID,0,VALID,94.8057,VALID,-0.0679233,VALID,20.206,VALID,218,VALID,1.10723,
2000-06-05, 01:40:00,VALID,915.066,VALID,0,VALID,94.7778,VALID,-0.101885,VALID,20.1933,VALID,218,VALID,1.05942,
2000-06-05, 01:41:00,VALID,915.057,VALID,0,VALID,94.7333,VALID,-0.101885,VALID,20.1866,VALID,224,VALID,0.909334,
2000-06-05, 01:42:00,VALID,915.044,VALID,0,VALID,94.7574,VALID,-0.101885,VALID,20.1995,VALID,217,VALID,0.838682,
2000-06-05, 01:43:00,VALID,915.049,VALID,0,VALID,94.8312,VALID,-0.101885,VALID,20.1998,VALID,209,VALID,0.69987,
2000-06-05, 01:44:00,VALID,915.041,VALID,0,VALID,94.9545,VALID,-0.101885,VALID,20.2124,VALID,228,VALID,0.685547,
2000-06-05, 01:45:00,VALID,915.039,VALID,0,VALID,94.9634,VALID,-0.101885,VALID,20.2122,VALID,226,VALID,0.433117,
2000-06-05, 01:46:00,VALID,915.017,VALID,0,VALID,95.2406,VALID,-0.101885,VALID,20.2289,VALID,216,VALID,0.573057,
2000-06-05, 01:47:00,VALID,915.001,VALID,0,VALID,95.3691,VALID,-0.101885,VALID,20.2159,VALID,223,VALID,0.736637,
2000-06-05, 01:48:00,VALID,914.983,VALID,0,VALID,95.4721,VALID,-0.101885,VALID,20.2065,VALID,220,VALID,0.833676,
2000-06-05, 01:49:00,VALID,914.959,VALID,0,VALID,95.6463,VALID,-0.101885,VALID,20.1766,VALID,228,VALID,0.668064,
2000-06-05, 01:50:00,VALID,914.925,VALID,0,VALID,95.94,VALID,-0.0849042,VALID,20.1737,VALID,232,VALID,0.725946,
2000-06-05, 01:51:00,VALID,914.913,VALID,0,VALID,96.1549,VALID,-0.0849042,VALID,20.1548,VALID,234,VALID,0.74815,
2000-06-05, 01:52:00,VALID,914.893,VALID,0,VALID,96.3075,VALID,-0.0679233,VALID,20.1322,VALID,229,VALID,0.627821,
2000-06-05, 01:53:00,VALID,914.873,VALID,0,VALID,96.3622,VALID,-0.101885,VALID,20.0767,VALID,211,VALID,0.69109,
2000-06-05, 01:54:00,VALID,914.859,VALID,0,VALID,96.497,VALID,-0.0339617,VALID,20.0631,VALID,204,VALID,0.642411,
2000-06-05, 01:55:00,VALID,914.833,VALID,0,VALID,96.5707,VALID,0,VALID,20.0531,VALID,202,VALID,0.671875,
2000-06-05, 01:56:00,VALID,914.826,VALID,0,VALID,96.5339,VALID,0.0169808,VALID,20.0297,VALID,208,VALID,0.352407,
2000-06-05, 01:57:00,VALID,914.784,VALID,0,VALID,96.4423,VALID,0.0169808,VALID,20.0434,VALID,217,VALID,0.553454,
2000-06-05, 01:58:00,VALID,914.754,VALID,0,VALID,96.249,VALID,0,VALID,20.0566,VALID,225,VALID,0.410684,
2000-06-05, 01:59:00,VALID,914.728,VALID,0,VALID,96.1219,VALID,0,VALID,20.0464,VALID,231,VALID,0.824219,
2000-06-05, 02:00:00,VALID,914.698,VALID,0,VALID,96.174,VALID,0.101885,VALID,20.0466,VALID,227,VALID,0.899671,
2000-06-05, 02:01:00,VALID,914.661,VALID,0,VALID,96.2045,VALID,0.0849042,VALID,20.0466,VALID,232,VALID,0.786675,
2000-06-05, 02:02:00,VALID,914.634,VALID,0,VALID,96.1918,VALID,0.0339617,VALID,20.0367,VALID,233,VALID,0.645904,
2000-06-05, 02:03:00,VALID,914.613,VALID,0,VALID,96.118,VALID,0.0339617,VALID,20.0404,VALID,232,VALID,0.73163,
2000-06-05, 02:04:00,VALID,914.599,VALID,0,VALID,96.1193,VALID,0.0509425,VALID,20.0367,VALID,226,VALID,0.861903,
2000-06-05, 02:05:00,VALID,914.587,VALID,0,VALID,96.0507,VALID,0.0169808,VALID,20.0332,VALID,217,VALID,0.983203,
2000-06-05, 02:06:00,VALID,914.593,VALID,0,VALID,95.8803,VALID,0.0679233,VALID,20.0593,VALID,214,VALID,0.90625,
2000-06-05, 02:07:00,VALID,914.561,VALID,0,VALID,95.7035,VALID,0.0679233,VALID,20.0529,VALID,213,VALID,0.855469,
2000-06-05, 02:08:00,VALID,914.549,VALID,0,VALID,95.7099,VALID,0.0169808,VALID,20.0625,VALID,218,VALID,0.769942,
2000-06-05, 02:09:00,VALID,914.538,VALID,0,VALID,95.7556,VALID,0,VALID,20.0591,VALID,200,VALID,1.00449,
2000-06-05, 02:10:00,VALID,914.539,VALID,0,VALID,95.6285,VALID,0.0169808,VALID,20.0857,VALID,206,VALID,0.92722,
2000-06-05, 02:11:00,VALID,914.535,VALID,0,VALID,95.6997,VALID,0.0169808,VALID,20.075,VALID,222,VALID,1,
2000-06-05, 02:12:00,VALID,914.518,VALID,0,VALID,95.6603,VALID,0.0169808,VALID,20.0847,VALID,216,VALID,0.817356,
2000-06-05, 02:13:00,VALID,914.516,VALID,0,VALID,95.6997,VALID,0,VALID,20.0916,VALID,204,VALID,0.815972,
2000-06-05, 02:14:00,VALID,914.504,VALID,0,VALID,95.8179,VALID,0,VALID,20.0795,VALID,211,VALID,1.19206,
2000-06-05, 02:15:00,VALID,914.494,VALID,0,VALID,95.9057,VALID,0,VALID,20.0524,VALID,204,VALID,0.999238,
2000-06-05, 02:16:00,VALID,914.466,VALID,0,VALID,96.057,VALID,0.0169808,VALID,20.0362,VALID,208,VALID,1.37183,
2000-06-05, 02:17:00,VALID,914.451,VALID,0,VALID,96.1702,VALID,0.0339617,VALID,20.0205,VALID,209,VALID,1.43298,
2000-06-05, 02:18:00,VALID,914.429,VALID,0,VALID,96.2503,VALID,0.0339617,VALID,20.0007,VALID,209,VALID,1.50781,
2000-06-05, 02:19:00,VALID,914.412,VALID,0,VALID,96.3012,VALID,0,VALID,19.9945,VALID,215,VALID,1.75838,
2000-06-05, 02:20:00,VALID,914.398,VALID,0,VALID,96.352,VALID,0,VALID,20.0012,VALID,214,VALID,1.55016,
2000-06-05, 02:21:00,VALID,914.397,VALID,0,VALID,96.2541,VALID,-0.0169808,VALID,20.0046,VALID,206,VALID,1.37644,
2000-06-05, 02:22:00,VALID,914.389,VALID,0,VALID,96.216,VALID,0,VALID,20.0012,VALID,213,VALID,1.14627,
2000-06-05, 02:23:00,VALID,914.375,VALID,0,VALID,96.1829,VALID,0.0169808,VALID,20.0049,VALID,214,VALID,1.36486,
2000-06-05, 02:24:00,VALID,914.355,VALID,0,VALID,96.071,VALID,-0.0169808,VALID,20.0111,VALID,209,VALID,1.3279,
2000-06-05, 02:25:00,VALID,914.331,VALID,0,VALID,96.0239,VALID,0,VALID,20.0009,VALID,215,VALID,1.44387,
2000-06-05, 02:26:00,VALID,914.304,VALID,0,VALID,95.9604,VALID,-0.0169808,VALID,20.0211,VALID,214,VALID,1.67758,
2000-06-05, 02:27:00,VALID,914.283,VALID,0,VALID,95.8536,VALID,0.0169808,VALID,20.0273,VALID,215,VALID,1.57751,
2000-06-05, 02:28:00,VALID,914.277,VALID,0,VALID,95.8574,VALID,0,VALID,20.0302,VALID,220,VALID,1.73691,
2000-06-05, 02:29:00,VALID,914.278,VALID,0,VALID,95.8027,VALID,0.0169808,VALID,20.0302,VALID,212,VALID,1.71523,
2000-06-05, 02:30:00,VALID,914.29,VALID,0,VALID,95.6819,VALID,0,VALID,20.0404,VALID,217,VALID,1.86534,
2000-06-05, 02:31:00,VALID,914.309,VALID,0,VALID,95.5318,VALID,0,VALID,20.0596,VALID,214,VALID,1.64214,
2000-06-05, 02:32:00,VALID,914.29,VALID,0,VALID,95.4492,VALID,-0.0169808,VALID,20.0757,VALID,210,VALID,1.45524,
2000-06-05, 02:33:00,VALID,914.286,VALID,0,VALID,95.3996,VALID,0.0509425,VALID,20.0847,VALID,202,VALID,1.14231,
2000-06-05, 02:34:00,VALID,914.267,VALID,0,VALID,95.3818,VALID,0,VALID,20.0852,VALID,206,VALID,1.22748,
2000-06-05, 02:35:00,VALID,914.252,VALID,0,VALID,95.3182,VALID,0,VALID,20.0983,VALID,209,VALID,1.11133,
2000-06-05, 02:36:00,VALID,914.236,VALID,0,VALID,95.2877,VALID,0,VALID,20.0847,VALID,212,VALID,1.35036,
2000-06-05, 02:37:00,VALID,914.215,VALID,0,VALID,95.2877,VALID,0.0169808,VALID,20.0983,VALID,208,VALID,1.28927,
2000-06-05, 02:38:00,VALID,914.187,VALID,0,VALID,95.2864,VALID,0,VALID,20.1013,VALID,213,VALID,1.34663,
2000-06-05, 02:39:00,VALID,914.175,VALID,0,VALID,95.3029,VALID,0,VALID,20.1046,VALID,199,VALID,1.13945,
2000-06-05, 02:40:00,VALID,914.164,VALID,0,VALID,95.2419,VALID,0,VALID,20.1242,VALID,208,VALID,0.917352,
2000-06-05, 02:41:00,VALID,914.141,VALID,0,VALID,95.2355,VALID,0,VALID,20.1336,VALID,209,VALID,0.760691,
2000-06-05, 02:42:00,VALID,914.164,VALID,0,VALID,95.1732,VALID,0,VALID,20.15,VALID,210,VALID,1.21896,
2000-06-05, 02:43:00,VALID,914.157,VALID,0,VALID,95.1338,VALID,-0.0169808,VALID,20.1627,VALID,201,VALID,0.780599,
2000-06-05, 02:44:00,VALID,914.171,VALID,0,VALID,95.0779,VALID,0,VALID,20.156,VALID,216,VALID,0.995877,
2000-06-05, 02:45:00,VALID,914.179,VALID,0,VALID,95.0499,VALID,0,VALID,20.1823,VALID,203,VALID,1.08041,
2000-06-05, 02:46:00,VALID,914.169,VALID,0,VALID,95.0079,VALID,0,VALID,20.1789,VALID,206,VALID,1.40182,
2000-06-05, 02:47:00,VALID,914.175,VALID,0,VALID,94.9049,VALID,0,VALID,20.1923,VALID,188,VALID,1.15748,
2000-06-05, 02:48:00,VALID,914.174,VALID,0,VALID,94.9075,VALID,0,VALID,20.1985,VALID,205,VALID,1.21505,
2000-06-05, 02:49:00,VALID,914.185,VALID,0,VALID,94.9227,VALID,0,VALID,20.2017,VALID,213,VALID,0.775534,
2000-06-05, 02:50:00,VALID,914.171,VALID,0,VALID,94.9164,VALID,-0.0169808,VALID,20.1821,VALID,213,VALID,0.986225,
2000-06-05, 02:51:00,VALID,914.176,VALID,0,VALID,94.9138,VALID,-0.0169808,VALID,20.1823,VALID,215,VALID,1.1433,
2000-06-05, 02:52:00,VALID,914.148,VALID,0,VALID,94.985,VALID,0,VALID,20.1729,VALID,218,VALID,1.60742,
2000-06-05, 02:53:00,VALID,914.115,VALID,0,VALID,95.069,VALID,-0.0169808,VALID,20.1597,VALID,219,VALID,1.44911,
2000-06-05, 02:54:00,VALID,914.094,VALID,0,VALID,95.2165,VALID,0.0169808,VALID,20.1433,VALID,221,VALID,1.3279,
2000-06-05, 02:55:00,VALID,914.076,VALID,0,VALID,95.3017,VALID,0,VALID,20.1239,VALID,206,VALID,1.50247,
2000-06-05, 02:56:00,VALID,914.056,VALID,0,VALID,95.3843,VALID,0.0169808,VALID,20.0782,VALID,218,VALID,1.32179,
2000-06-05, 02:57:00,VALID,914.04,VALID,0,VALID,95.4746,VALID,0,VALID,20.079,VALID,215,VALID,1.3088,
2000-06-05, 02:58:00,VALID,914.027,VALID,0,VALID,95.5738,VALID,0,VALID,20.0461,VALID,223,VALID,1.03463,
2000-06-05, 02:59:00,VALID,914.021,VALID,0,VALID,95.5547,VALID,0,VALID,20.0434,VALID,218,VALID,1.22422,
2000-06-05, 03:00:00,VALID,914.021,VALID,0,VALID,95.4911,VALID,0.0169808,VALID,20.0205,VALID,204,VALID,0.820724,
2000-06-05, 03:01:00,VALID,914.017,VALID,0,VALID,95.4517,VALID,0.0169808,VALID,20.0173,VALID,219,VALID,1.0753,
2000-06-05, 03:02:00,VALID,914.013,VALID,0,VALID,95.467,VALID,0,VALID,20.0007,VALID,220,VALID,0.8144,
2000-06-05, 03:03:00,VALID,914.006,VALID,0,VALID,95.4123,VALID,0,VALID,20.0141,VALID,222,VALID,1.19426,
2000-06-05, 03:04:00,VALID,914.007,VALID,0,VALID,95.3068,VALID,0.0169808,VALID,20.0111,VALID,216,VALID,1.1165,
2000-06-05, 03:05:00,VALID,914.024,VALID,0,VALID,95.1923,VALID,0,VALID,20.0044,VALID,214,VALID,1.08027,
2000-06-05, 03:06:00,VALID,914.026,VALID,0,VALID,95.1618,VALID,0,VALID,20.0041,VALID,219,VALID,0.85637,
2000-06-05, 03:07:00,VALID,914.024,VALID,0,VALID,95.0486,VALID,0.0169808,VALID,20.0076,VALID,221,VALID,1.07237,
2000-06-05, 03:08:00,VALID,914.03,VALID,0,VALID,94.9774,VALID,0,VALID,19.9848,VALID,219,VALID,0.945313,
2000-06-05, 03:09:00,VALID,914.038,VALID,0,VALID,94.7498,VALID,0,VALID,19.985,VALID,217,VALID,1.14902,
2000-06-05, 03:10:00,VALID,914.036,VALID,0,VALID,94.6188,VALID,0,VALID,19.9751,VALID,216,VALID,1.08532,
2000-06-05, 03:11:00,VALID,914.045,VALID,0,VALID,94.526,VALID,0,VALID,19.995,VALID,216,VALID,0.817434,
2000-06-05, 03:12:00,VALID,914.057,VALID,0,VALID,94.381,VALID,0,VALID,20.0245,VALID,204,VALID,0.629645,
2000-06-05, 03:13:00,VALID,914.073,VALID,0,VALID,94.2653,VALID,0,VALID,20.0208,VALID,193,VALID,0.781033,
2000-06-05, 03:14:00,VALID,914.099,VALID,0,VALID,93.8533,VALID,0,VALID,20.0404,VALID,200,VALID,1.17578,
2000-06-05, 03:15:00,VALID,914.096,VALID,0,VALID,93.7351,VALID,-0.0169808,VALID,20.0892,VALID,205,VALID,0.595465,
2000-06-05, 03:16:00,VALID,914.112,VALID,0,VALID,93.3714,VALID,0,VALID,20.1083,VALID,191,VALID,0.730574,
2000-06-05, 03:17:01,VALID,914.128,VALID,0,VALID,93.0331,VALID,0,VALID,20.1535,VALID,182,VALID,1.04975,
2000-06-05, 03:18:00,VALID,914.138,VALID,0,VALID,92.6186,VALID,0,VALID,20.2211,VALID,189,VALID,0.792969,
2000-06-05, 03:19:01,VALID,914.162,VALID,0,VALID,92.4456,VALID,-0.0169808,VALID,20.3027,VALID,171,VALID,1.00819,
2000-06-05, 03:20:00,VALID,914.17,VALID,0,VALID,92.2905,VALID,-0.0169808,VALID,20.3414,VALID,202,VALID,0.731086,
2000-06-05, 03:21:00,VALID,914.196,VALID,0,VALID,92.1634,VALID,0,VALID,20.3767,VALID,172,VALID,0.911595,
2000-06-05, 03:22:01,VALID,914.193,VALID,0,VALID,92.0273,VALID,0,VALID,20.4152,VALID,174,VALID,1.11176,
2000-06-05, 03:23:00,VALID,914.205,VALID,0,VALID,91.9891,VALID,0,VALID,20.4446,VALID,176,VALID,1.1666,
2000-06-05, 03:24:00,VALID,914.212,VALID,0,VALID,92.218,VALID,0,VALID,20.4476,VALID,181,VALID,0.401116,
2000-06-05, 03:25:00,VALID,914.209,VALID,0,VALID,92.1595,VALID,0,VALID,20.4448,VALID,187,VALID,0.888363,
2000-06-05, 03:26:00,VALID,914.216,VALID,0,VALID,92.2244,VALID,-0.0339617,VALID,20.4053,VALID,167,VALID,0.817356,
2000-06-05, 03:27:01,VALID,914.236,VALID,0,VALID,92.3541,VALID,-0.0339617,VALID,20.3959,VALID,183,VALID,0.700452,
2000-06-05, 03:28:00,VALID,914.259,VALID,0,VALID,92.6211,VALID,0,VALID,20.3767,VALID,162,VALID,0.517103,
2000-06-05, 03:29:00,VALID,914.267,VALID,0,VALID,92.7763,VALID,-0.0339617,VALID,20.3568,VALID,241,VALID,0.441016,
2000-06-05, 03:30:00,VALID,914.288,VALID,0,VALID,92.8869,VALID,-0.0169808,VALID,20.3479,VALID,211,VALID,0.609581,
2000-06-05, 03:31:00,VALID,914.308,VALID,0,VALID,92.822,VALID,-0.0169808,VALID,20.331,VALID,215,VALID,0.48546,
2000-06-05, 03:32:01,VALID,914.306,VALID,0,VALID,92.9835,VALID,-0.0169808,VALID,20.3253,VALID,189,VALID,0.251478,
2000-06-05, 03:33:00,VALID,914.337,VALID,0,VALID,93.3955,VALID,0,VALID,20.3051,VALID,153,VALID,0.212838,
2000-06-05, 03:34:00,VALID,914.345,VALID,0,VALID,93.7249,VALID,0,VALID,20.2795,VALID,85,VALID,1.22955,